Weather History for Amarillo, TX

Change the Weather History Date:

Thursday, April 11, 2013

  Actual Average Record
Temperature  
Mean Temperature 44 °F 55 °F  
Max Temperature 68 °F 70 °F 91 °F (1972)
Min Temperature 20 °F 40 °F 20 °F (1997)
Degree Days  
Heating Degree Days 21 11  
Month to date heating degree days 160 131  
Since 1 July heating degree days 3462 3940  
Cooling Degree Days 0 0  
Month to date cooling degree days 6 0  
Year to date cooling degree days 6 2  
Moisture  
Dew Point 14 °F    
Average Humidity 35    
Maximum Humidity 57    
Minimum Humidity 13    
Precipitation  
Precipitation 0.00 in 0.04 in 1.27 in (1954)
Month to date precipitation 0.01 0.47  
Year to date precipitation 3.45 3.14  
Snow  
Snow 0.00 in 0.00 in 0.10 in (1914)
Month to date snowfall T 0.4  
Since 1 July snowfall 29.7 17.3  
Snow Depth 0.00 in    
Sea Level Pressure  
Sea Level Pressure 29.84 in    
Wind  
Wind Speed 10 mph (WNW)    
Max Wind Speed 17 mph    
Max Gust Speed 22 mph    
Visibility 10 miles    
Events      
T = Trace of Precipitation, MM = Missing Value Source: NWS Daily Summary

Daily Weather History Graph

Daily Weather History Graph

Search for Another Location

Airport:

Trip Planner

Search our weather history database for the weather conditions in past years. The results will help you decide how hot, cold, wet, or windy it might be!

Date:

Astronomy

Apr. 11, 2013 Rise Set
Actual Time 7:19 AM CDT 8:16 PM CDT
Civil Twilight 6:53 AM CDT 8:42 PM CDT
Nautical Twilight 6:22 AM CDT 9:13 PM CDT
Astronomical Twilight 5:51 AM CDT 9:45 PM CDT
Moon 7:55 AM CDT (4/11) 9:48 PM CDT (4/11)
Length of Visible Light 13h 49m
Length of Day
12h 57m
New Moon, 2% of the Moon is Illuminated
Apr 11
New Moon
Apr 18
First Quarter
Apr 25
Full
May 2
Last Quarter
May 9
New

Hourly Weather History & Observations

Time (CDT) Temp. Windchill Dew Point Humidity Pressure Visibility Wind Dir Wind Speed Gust Speed Precip Events Conditions
12:53 AM 28.4 °F 19.7 °F 8.6 °F 43% 29.99 in 10.0 mi North 9.2 mph - N/A   Clear
1:53 AM 28.9 °F 21.1 °F 9.0 °F 43% 29.99 in 10.0 mi North 8.1 mph - N/A   Clear
2:53 AM 27.0 °F 18.7 °F 8.1 °F 45% 29.96 in 10.0 mi North 8.1 mph - N/A   Clear
3:53 AM 26.1 °F 18.4 °F 8.1 °F 47% 29.94 in 10.0 mi North 6.9 mph - N/A   Clear
4:53 AM 25.0 °F - 8.1 °F 49% 29.91 in 10.0 mi Calm Calm - N/A   Clear
5:53 AM 21.0 °F 13.4 °F 8.1 °F 57% 29.93 in 10.0 mi SW 5.8 mph - N/A   Clear
6:53 AM 21.0 °F 12.4 °F 9.0 °F 60% 29.93 in 10.0 mi SSW 6.9 mph - N/A   Clear
7:53 AM 24.1 °F 15.2 °F 10.9 °F 57% 29.92 in 10.0 mi SW 8.1 mph - N/A   Clear
8:53 AM 33.1 °F 24.9 °F 10.9 °F 40% 29.91 in 10.0 mi SSW 10.4 mph - N/A   Clear
9:53 AM 37.4 °F 29.3 °F 10.4 °F 33% 29.89 in 10.0 mi SSW 12.7 mph - N/A   Clear
10:53 AM 46.0 °F 38.5 °F 12.0 °F 25% 29.85 in 10.0 mi SSW 19.6 mph 26.5 mph N/A   Clear
11:53 AM 53.6 °F - 17.6 °F 24% 29.85 in 10.0 mi WSW 18.4 mph 27.6 mph N/A   Clear
12:53 PM 57.0 °F - 19.0 °F 23% 29.79 in 10.0 mi WSW 15.0 mph 24.2 mph N/A   Clear
1:53 PM 61.0 °F - 17.1 °F 18% 29.76 in 10.0 mi WNW 12.7 mph 18.4 mph N/A   Clear
2:53 PM 64.0 °F - 18.0 °F 17% 29.73 in 10.0 mi NW 9.2 mph 21.9 mph N/A   Clear
3:53 PM 66.0 °F - 17.1 °F 15% 29.72 in 10.0 mi Variable 6.9 mph 16.1 mph N/A   Unknown
4:53 PM 68.0 °F - 17.1 °F 14% 29.70 in 10.0 mi WNW 17.3 mph 20.7 mph N/A   Clear
5:53 PM 68.0 °F - 16.0 °F 14% 29.71 in 10.0 mi WNW 12.7 mph - N/A   Clear
6:53 PM 68.0 °F - 16.0 °F 14% 29.71 in 10.0 mi NW 4.6 mph - N/A   Clear
7:53 PM 63.0 °F - 18.0 °F 18% 29.73 in 10.0 mi ESE 5.8 mph - N/A   Clear
8:53 PM 54.0 °F - 21.0 °F 28% 29.76 in 10.0 mi NE 12.7 mph - N/A   Clear
9:53 PM 51.1 °F - 23.0 °F 33% 29.80 in 10.0 mi NE 12.7 mph - N/A   Clear
10:53 PM 48.9 °F - 24.1 °F 38% 29.81 in 10.0 mi NE 9.2 mph - N/A   Clear
11:53 PM 45.0 °F 39.3 °F 24.1 °F 44% 29.83 in 10.0 mi NE 11.5 mph - N/A   Clear